Simultaneous Nadir Overpasses (SNOs) Predictions

Prediction of SNOs between GOES-16 and NOAA-20 Satellite Orbit:

Table of predicted SNOs for the next 14.0 days since TLE Epoch: 7/30/2022
Index Date Time (GOES-16) GOES-16 Lat,Lon NOAA-20 Lat,Lon Distance(km) Time Diff (sec)
1 07/31/2022 18:26:34 -0.02, -75.21 -0.14, -75.68 54.26 80
2 08/01/2022 18:10:29 -0.02, -75.22 0.88, -71.15 463.16 80
3 08/03/2022 06:32:15 0.02, -75.22 0.31, -76.41 136.52 80
4 08/04/2022 06:10:49 0.02, -75.23 -0.70, -71.88 381.12 80
5 08/05/2022 18:32:45 -0.02, -75.25 -0.46, -77.19 220.88 80
6 08/06/2022 18:16:39 -0.01, -75.26 0.56, -72.65 296.56 80
7 08/08/2022 06:38:27 -0.01, -75.27 0.58, -77.93 303.40 80
8 08/09/2022 06:17:01 -0.01, -75.27 -0.44, -73.40 214.35 80
9 08/10/2022 18:38:55 0.00, -75.30 -0.77, -78.69 387.19 80
10 08/11/2022 18:22:50 0.00, -75.31 0.25, -74.16 131.03 80
